SCP
0 0 0 0 0 0 0 0 0 0 0 0 0 0 -0 -0 -0 -0 0 0 0 0 0 0 0 0 0 0 0 0 0 0 0 0 0 0 0 0
0 0 0 0 0 0 0 0 0 0 0 0 0 0 -0 -0 -0 -0 0 0 0 0 0 0 0 0 0 0 0 0 0 0 0 0 0 0 0 0
0 0 0 0 0 0 0 0 0 0 0 0 0 0 0 0 0 0 0 0 0 0 0 0 0 0 0 0 0 0 0 0 0 0 0 0 0 0
0 0 0 0 0 0 0 0 0 0 0 0 0 0 0 0 0 0 0 0 0 0 0 0 0 0 0 0 0 0 0 0 0 0 0 0 0 0
0 0 0 0 0 0 0 0 0 0 0 0 0 0 0 0 0 0 0 0 0 0 0 0 0 0 0 0 0 0 0 0 0 0 0 0 0 0
0 0 0 -0 -0 -0 -0 0 0 0 0 0 0 0 0 0 0 0 0 0 0 0 0 0 0 0 0 0 0 0 0 0 0 0 0 0 0 0
0 0 -0 -0 -0 -0 -0 0 0 0 0 0 0 0 0 0 0 0 0 0 0 0 0 0 0 0 0 0 0 0 0 0 0 0 0 0 0 0
0 0 -0 -0 -0 -0 -0 -0 -0 -0 -0 0 0 0 0 0 0 0 0 0 0 0 0 0 0 0 0 0 0 0 0 0 0 0 0 0 0 0
0 -0 -0 -0 0 0 -0 0 0 0 0 0 0 0 0 0 0 0 0 0 0 0 0 0 0 0 0 0 0 0 0 0 0 0 0 0 0 0
0 -0 -0 -0 0 0 0 0 0 0 0 0 0 0 0 0 0 0 0 0 0 0 0 0 0 0 0 0 0 0 0 0 0 0 0 0 0 0
0 0 0 0 0 0 0 0 0 0 0 0 0 0 0 0 0 0 0 0 0 0 0 0 0 0 0 0 0 0 0 0 0 0 0 0 0 0
0 0 0 0 0 0 0 0 0 0 0 0 0 0 0 0 0 0 0 0 0 0 0 0 0 0 0 0 0 0 0 0 0 0 0 0 0 0
0 0 0 0 0 0 0 0 0 0 0 -0 -0 -0 -0 0 0 0 0 0 0 0 0 0 0 0 0 0 0 0 0 0 0 0 0 0 0 0
0 0 0 0 0 0 0 0 0 0 0 -0 -0 -0 -0 -0 -0 -0 -0 -0 0 0 0 0 0 0 0 0 0 0 0 0 0 0 0 0 0 0
0 0 0 0 0 0 0 0 0 0 0 0 -0 -0 -0 -0 -0 -0 -0 -0 -0 -0 0 0 0 0 0 0 0 0 0 0 0 0 0 0 0 0
0 0 0 0 0 0 0 0 0 0 0 0 0 0 0 0 0 -0 -0 -0 -0 -0 -0 -0 -0 0 0 0 0 0 0 0 0 0 0 0 0 0
0 0 0 0 0 0 0 0 0 0 0 0 0 0 0 0 0 0 0 0 -0 -0 -0 0 0 0 0 0 0 0 0 0 0 0 0 0 0 0
0 0 0 0 0 0 0 0 0 0 0 0 0 0 0 0 0 0 0 0 0 0 0 0 0 0 0 0 0 0 0 0 0 0 0 0 0 0
0 0 0 0 0 0 0 0 0 0 0 0 0 0 0 0 0 0 0 0 0 0 0 0 0 0 0 0 0 0 0 0 0 0 0 0 0 0
0 0 0 0 0 0 0 0 0 0 0 0 0 0 0 0 0 0 0 0 0 0 0 0 0 0 0 0 0 0 0 0 0 0 0 0 0 0
0 0 0 0 0 0 0 0 0 0 0 0 0 0 0 0 0 0 0 0 0 0 0 0 0 0 0 0 0 0 0 0 0 0 0 0 0 0
0 0 0 0 0 0 0 0 0 0 0 0 0 0 0 0 0 0 0 0 0 0 0 0 0 0 0 0 0 0 0 0 0 0 0 0 0 0
0 0 0 0 0 0 0 0 0 0 0 0 0 0 0 0 0 0 0 0 0 0 0 0 0 0 0 0 0 0 0 0 0 0 0 0 0 0
Wind_Speed
3 3 3 2 3 3 2 2 2 2 1 1 1 1 1 2 3 3 3 7 9 9 10 11 11 11 12 12 11 11 11 11 12 12 11 11 10 9
3 4 3 2 3 2 2 2 2 2 1 0 1 1 1 2 4 3 3 6 7 7 8 8 9 9 10 10 10 11 10 11 12 12 11 10 10 8
3 4 4 3 2 2 2 2 2 3 3 0 1 1 2 2 2 1 1 1 2 5 5 6 7 7 8 8 9 9 10 11 12 11 11 10 9 8
3 4 3 3 3 3 2 2 2 2 3 2 1 1 1 1 1 1 1 2 1 2 3 4 5 5 6 6 7 7 9 10 10 11 12 10 9 9
3 3 3 3 2 2 2 2 2 2 2 2 1 0 0 1 1 1 1 1 0 2 2 2 2 2 3 4 5 6 7 8 9 10 11 11 10 10
3 3 3 3 3 2 2 2 2 2 2 1 1 0 0 0 1 1 2 2 2 0 1 1 1 1 1 2 2 3 5 5 6 7 8 9 9 9
3 4 4 6 7 4 3 2 2 1 1 1 0 1 0 1 1 1 1 2 2 0 0 1 0 0 0 0 0 1 2 3 5 6 6 7 8 9
2 3 4 5 6 6 6 5 3 2 1 0 0 0 1 1 1 1 1 1 2 2 1 2 1 1 1 1 2 2 2 2 3 4 5 6 7 8
1 2 2 4 4 3 3 3 3 2 0 1 0 1 1 1 1 1 1 1 2 2 1 2 1 1 2 2 4 4 4 4 4 5 6 7 7 8
1 2 3 3 2 2 2 1 1 1 1 1 0 1 1 1 0 1 1 2 2 2 0 2 2 2 2 2 5 5 5 5 6 6 7 7 8 8
1 1 2 3 3 3 2 1 0 1 1 1 0 1 1 2 1 1 1 1 2 3 1 1 2 2 2 2 4 6 6 6 7 8 9 8 8 8
1 1 2 2 3 4 2 1 1 2 1 1 2 3 3 3 3 2 2 1 2 3 2 1 2 2 3 3 2 2 3 6 8 9 9 9 8 4
1 1 1 4 4 5 4 2 3 2 1 2 2 2 2 2 2 3 3 2 2 3 3 1 2 2 2 4 3 3 3 3 3 5 7 8 8 6
2 2 2 4 5 6 4 4 4 2 1 1 2 2 3 3 3 3 3 3 4 5 4 2 2 2 3 4 4 3 3 3 3 3 3 6 7 9
2 2 3 4 4 4 5 5 4 2 2 2 4 4 3 3 2 2 3 3 4 4 4 4 3 3 3 4 4 4 4 4 3 3 3 3 3 3
3 3 4 3 3 3 3 4 3 3 3 4 4 3 3 2 2 2 2 2 3 4 5 5 5 4 4 5 5 5 4 4 4 4 4 4 3 3
2 2 2 1 2 3 3 3 3 3 5 4 4 4 3 3 3 3 3 3 4 4 4 4 4 5 5 4 5 6 6 5 5 4 4 5 5 4
3 3 3 4 4 4 4 4 4 5 5 4 4 4 4 4 4 3 3 4 5 5 5 4 3 3 4 5 7 7 6 6 5 5 4 5 7 5
3 3 4 4 4 4 4 4 4 4 4 4 4 4 4 4 4 4 4 4 5 6 5 4 3 3 6 8 7 7 6 6 5 5 4 5 7 7
3 4 4 3 3 3 4 4 3 3 3 3 4 4 4 4 4 5 4 5 6 5 5 4 5 5 7 8 7 5 7 6 5 6 6 5 6 8
3 3 3 3 3 3 3 3 3 3 4 4 4 4 4 4 5 5 5 8 7 6 7 7 7 9 6 4 5 6 5 7 8 6 6 6 7 6
3 3 3 3 3 3 3 3 4 4 4 4 4 4 4 4 6 7 6 6 6 7 8 7 5 4 4 6 8 8 7 6 8 11 12 10 6 7
3 3 3 3 3 3 3 4 5 4 4 4 4 4 4 5 5 5 6 6 6 7 7 6 4 4 5 6 7 7 9 8 6 6 7 10 13 15
Wind_Direction
66 69 68 53 47 47 58 94 123 117 56 61 67 40 68 69 42 60 65 54 51 49 46 43 42 42 42 42 41 39 37 36 34 31 30 28 27 30
59 61 58 59 51 44 41 35 57 108 109 42 101 124 65 78 64 59 74 65 58 55 50 45 44 42 41 40 40 38 35 33 30 25 19 16 16 18
84 77 61 56 56 40 43 44 42 81 105 67 77 99 75 65 50 32 84 85 62 61 61 59 52 44 39 37 37 36 34 31 26 18 14 15 15 15
87 91 80 68 57 43 45 44 40 65 112 114 73 59 80 90 58 358 27 75 93 87 82 74 59 48 39 36 37 36 33 29 22 17 17 17 16 19
85 96 104 94 76 56 53 48 36 52 76 109 140 75 71 85 48 359 8 353 334 138 127 99 82 59 45 42 42 36 33 26 20 15 15 16 17 17
92 83 79 82 78 69 67 54 53 54 54 73 94 127 130 348 74 357 336 315 310 23 58 119 158 150 95 61 44 35 32 21 16 11 9 6 5 3
90 87 81 80 71 61 59 48 50 48 50 63 75 44 11 20 318 282 297 296 303 281 320 272 243 270 227 52 15 19 18 5 360 357 356 354 351 349
112 120 114 96 80 72 63 63 69 69 67 74 169 185 259 249 275 310 323 346 310 301 14 296 257 258 241 209 207 209 263 303 318 324 329 333 335 335
136 139 123 116 116 106 74 51 35 24 11 170 234 245 249 255 235 303 312 292 257 260 3 295 285 268 256 227 212 225 244 266 284 295 304 312 318 322
108 128 130 136 135 131 142 105 19 347 331 46 114 293 330 345 345 222 244 303 297 296 215 276 286 273 274 253 232 234 246 259 273 285 292 297 301 305
204 134 136 143 145 131 133 154 246 293 328 32 275 264 314 338 357 32 352 340 303 289 267 243 278 289 282 266 247 240 253 262 270 281 286 288 292 299
222 160 136 148 152 152 166 194 230 246 250 292 288 286 281 284 275 215 213 234 271 287 272 247 282 314 307 284 267 263 262 265 267 273 277 280 286 291
217 199 191 182 185 192 194 203 225 242 248 252 253 258 259 253 249 240 223 206 234 263 273 258 283 284 264 289 292 271 255 265 269 272 269 273 277 273
232 213 208 204 205 210 212 231 243 266 266 272 273 262 254 252 249 236 231 228 229 245 262 256 254 259 275 286 284 284 282 277 270 267 267 272 271 270
256 261 245 223 212 216 225 231 233 235 243 255 256 254 249 247 246 249 254 249 259 264 267 259 254 262 252 263 273 278 290 285 270 270 276 272 268 272
257 271 264 236 218 228 229 233 227 226 227 241 250 255 261 261 254 241 247 253 265 273 264 253 250 250 262 264 267 278 275 275 284 278 277 276 273 267
213 215 222 222 229 237 235 231 224 229 237 242 247 254 256 254 253 245 240 246 251 262 270 268 257 248 243 252 270 270 273 273 269 273 281 283 273 264
191 218 226 226 228 232 235 237 230 230 233 233 237 241 247 252 259 257 248 244 254 259 261 261 267 286 294 274 243 263 268 268 270 269 265 279 282 272
202 230 235 235 237 237 238 239 240 239 235 237 242 246 250 254 256 258 257 257 260 262 261 255 248 249 272 280 275 238 252 269 274 272 264 263 274 278
226 237 244 246 248 249 249 251 252 252 245 246 247 249 249 253 260 260 259 259 264 269 270 261 247 240 247 264 275 269 242 252 265 271 273 271 269 273
238 244 249 253 255 256 256 256 256 254 254 250 250 251 250 252 258 260 261 265 263 264 264 260 252 251 253 262 276 276 266 250 254 264 274 282 286 286
258 257 260 261 262 262 261 258 259 258 257 254 256 256 254 252 256 260 261 263 262 262 266 267 265 256 244 249 263 272 280 280 268 266 262 258 266 275
259 262 262 261 261 263 265 263 260 259 257 259 260 259 259 261 261 262 265 264 266 269 272 273 269 256 249 250 259 268 275 280 281 281 271 264 263 268